�������l�o���
Date,Time,MP-1(��Sv/h),MP-2(��Sv/h),MP-3(��Sv/h),MP-4(��Sv/h),MP-5(��Sv/h),MP-6(��Sv/h),MP-7(��Sv/h),MP-8(��Sv/h),����,����(m/s),���J
2019/10/23,00:00,0.689,0.961,0.641,1.193,0.820,0.401,0.695,0.662,�k�k��,10.1,�L
2019/10/23,00:10,0.688,0.959,0.640,1.193,0.823,0.402,0.695,0.662,�k�k��,9.3,�L
2019/10/23,00:20,0.689,0.959,0.644,1.195,0.823,0.400,0.694,0.663,�k�k��,8.9,�L
2019/10/23,00:30,0.688,0.961,0.644,1.196,0.823,0.401,0.695,0.663,�k��,9.6,��
2019/10/23,00:40,0.690,0.965,0.644,1.196,0.824,0.400,0.696,0.664,�k�k��,8.5,�L
2019/10/23,00:50,0.691,0.963,0.644,1.198,0.825,0.404,0.695,0.664,�k��,7.5,�L
2019/10/23,01:00,0.691,0.966,0.646,1.198,0.825,0.403,0.698,0.664,�k�k��,10.2,�L
2019/10/23,01:10,0.692,0.968,0.645,1.198,0.827,0.402,0.697,0.663,�k�k��,10.1,�L
2019/10/23,01:20,0.690,0.967,0.646,1.199,0.825,0.401,0.696,0.664,�k�k��,9.6,��
2019/10/23,01:30,0.689,0.968,0.644,1.202,0.828,0.401,0.696,0.663,�k��,7.4,��
2019/10/23,01:40,0.692,0.969,0.646,1.199,0.828,0.402,0.695,0.665,�k�k��,8.9,��
2019/10/23,01:50,0.691,0.968,0.649,1.198,0.827,0.404,0.697,0.665,�k�k��,9.4,��
2019/10/23,02:00,0.692,0.968,0.647,1.197,0.828,0.402,0.697,0.665,�k��,9.1,��
2019/10/23,02:10,0.694,0.971,0.648,1.200,0.828,0.402,0.696,0.663,�k��,8.2,��
2019/10/23,02:20,0.692,0.971,0.648,1.201,0.829,0.403,0.699,0.666,�k��,8.0,�L
2019/10/23,02:30,0.693,0.973,0.646,1.199,0.830,0.401,0.697,0.664,�k��,8.5,�L
2019/10/23,02:40,0.691,0.973,0.649,1.201,0.831,0.404,0.698,0.664,�k�k��,8.5,��
2019/10/23,02:50,0.691,0.971,0.650,1.202,0.831,0.403,0.699,0.665,�k�k��,8.0,��
2019/10/23,03:00,0.694,0.971,0.648,1.202,0.830,0.403,0.699,0.666,�k��,8.0,��
2019/10/23,03:10,0.694,0.974,0.650,1.204,0.831,0.403,0.698,0.667,�k�k��,8.8,��
2019/10/23,03:20,0.693,0.974,0.651,1.203,0.828,0.404,0.699,0.666,�k�k��,8.2,��
2019/10/23,03:30,0.692,0.973,0.650,1.206,0.829,0.403,0.700,0.665,�k�k��,8.5,��
2019/10/23,03:40,0.695,0.976,0.651,1.206,0.830,0.403,0.699,0.667,�k�k��,6.9,��
2019/10/23,03:50,0.694,0.975,0.650,1.203,0.832,0.401,0.699,0.664,�k�k��,5.5,��
2019/10/23,04:00,0.694,0.975,0.649,1.205,0.832,0.404,0.699,0.666,�k�k��,7.5,��
2019/10/23,04:10,0.693,0.977,0.650,1.206,0.833,0.403,0.699,0.667,�k��,6.6,��
2019/10/23,04:20,0.694,0.976,0.651,1.209,0.832,0.403,0.702,0.666,�k��,5.8,��
2019/10/23,04:30,0.692,0.976,0.649,1.206,0.832,0.403,0.699,0.666,�k��,5.6,��
2019/10/23,04:40,0.695,0.977,0.652,1.205,0.833,0.402,0.700,0.667,�k��,6.6,��
2019/10/23,04:50,0.693,0.977,0.648,1.208,0.830,0.404,0.699,0.666,�k��,5.5,��
2019/10/23,05:00,0.692,0.975,0.653,1.205,0.833,0.405,0.700,0.667,�k��,6.6,��
2019/10/23,05:10,0.695,0.976,0.653,1.207,0.833,0.404,0.700,0.664,�k��,6.7,��
2019/10/23,05:20,0.693,0.976,0.653,1.207,0.834,0.403,0.701,0.666,�k��,8.0,��
2019/10/23,05:30,0.694,0.976,0.654,1.208,0.833,0.404,0.701,0.666,�k��,8.0,��
2019/10/23,05:40,0.694,0.977,0.653,1.209,0.834,0.405,0.701,0.667,�k��,7.7,��
2019/10/23,05:50,0.695,0.977,0.653,1.208,0.834,0.403,0.701,0.667,�k��,7.7,��
2019/10/23,06:00,0.694,0.977,0.653,1.207,0.834,0.403,0.700,0.667,�k��,6.4,��
2019/10/23,06:10,0.696,0.977,0.653,1.207,0.837,0.403,0.700,0.667,�k��,6.0,��
2019/10/23,06:20,0.695,0.976,0.652,1.209,0.834,0.403,0.699,0.666,�k��,8.6,��
2019/10/23,06:30,0.693,0.978,0.652,1.209,0.835,0.403,0.702,0.666,�k��,7.2,��
2019/10/23,06:40,0.696,0.979,0.655,1.208,0.836,0.404,0.700,0.667,���k��,6.9,��
2019/10/23,06:50,0.695,0.977,0.654,1.209,0.836,0.404,0.701,0.667,�k��,6.0,��
2019/10/23,07:00,0.694,0.979,0.654,1.209,0.836,0.404,0.702,0.669,�k��,6.6,��
2019/10/23,07:10,0.695,0.978,0.654,1.210,0.833,0.402,0.702,0.669,�k��,5.8,��
2019/10/23,07:20,0.694,0.979,0.653,1.211,0.838,0.404,0.703,0.668,�k��,6.3,��
2019/10/23,07:30,0.696,0.980,0.654,1.212,0.836,0.404,0.703,0.666,�k��,6.3,��
2019/10/23,07:40,0.695,0.978,0.655,1.211,0.837,0.403,0.703,0.668,�k��,6.0,��
2019/10/23,07:50,0.698,0.980,0.655,1.211,0.837,0.405,0.703,0.668,�k�k��,4.4,��
2019/10/23,08:00,0.697,0.979,0.655,1.210,0.837,0.403,0.703,0.669,�k��,5.2,��
2019/10/23,08:10,0.699,0.980,0.654,1.209,0.839,0.405,0.702,0.667,�k�k��,4.9,��
2019/10/23,08:20,0.697,0.975,0.655,1.210,0.838,0.404,0.703,0.668,�k�k��,4.1,��
2019/10/23,08:30,0.697,0.978,0.654,1.210,0.839,0.405,0.702,0.668,�k��,5.2,��
2019/10/23,08:40,0.696,0.979,0.654,1.214,0.837,0.406,0.704,0.670,�k�k��,5.5,��
2019/10/23,08:50,0.696,0.975,0.652,1.212,0.838,0.404,0.702,0.669,�k�k��,6.9,��
2019/10/23,09:00,0.695,0.975,0.653,1.213,0.840,0.404,0.703,0.668,�k�k��,4.4,��
2019/10/23,09:10,0.698,0.977,0.652,1.213,0.839,0.403,0.703,0.668,�k�k��,5.6,��
2019/10/23,09:20,0.697,0.976,0.654,1.213,0.840,0.405,0.704,0.669,�k�k��,6.1,��
2019/10/23,09:30,0.699,0.975,0.651,1.214,0.840,0.405,0.704,0.668,�k�k��,6.9,��
2019/10/23,09:40,0.698,0.973,0.653,1.214,0.839,0.403,0.703,0.669,�k�k��,6.0,��
2019/10/23,09:50,0.699,0.978,0.654,1.217,0.842,0.403,0.704,0.668,�k�k��,5.7,��
2019/10/23,10:00,0.699,0.976,0.654,1.215,0.840,0.403,0.705,0.669,�k�k��,5.3,��
2019/10/23,10:10,0.699,0.978,0.655,1.215,0.842,0.404,0.706,0.668,�k�k��,6.3,��
2019/10/23,10:20,0.699,0.977,0.655,1.216,0.842,0.405,0.704,0.665,�k,7.7,��
2019/10/23,10:30,0.700,0.981,0.657,1.218,0.841,0.404,0.707,0.667,�k�k��,8.2,��
2019/10/23,10:40,0.699,0.978,0.657,1.219,0.844,0.403,0.705,0.667,�k,7.8,��
2019/10/23,10:50,0.702,0.977,0.657,1.218,0.843,0.404,0.706,0.667,�k,7.2,��
2019/10/23,11:00,0.701,0.980,0.658,1.216,0.845,0.404,0.706,0.667,�k,8.0,��
2019/10/23,11:10,0.702,0.981,0.658,1.219,0.845,0.403,0.708,0.668,�k,7.2,��
2019/10/23,11:20,0.701,0.982,0.656,1.218,0.846,0.404,0.706,0.667,�k,4.4,��
2019/10/23,11:30,0.703,0.985,0.656,1.218,0.845,0.405,0.707,0.668,�k,6.9,��
2019/10/23,11:40,0.703,0.983,0.659,1.219,0.847,0.404,0.706,0.668,�k�k��,5.3,��
2019/10/23,11:50,0.704,0.988,0.658,1.217,0.847,0.403,0.707,0.668,�k�k��,6.4,��
2019/10/23,12:00,0.703,0.983,0.659,1.219,0.845,0.404,0.707,0.668,�k,6.7,��
2019/10/23,12:10,0.703,0.988,0.657,1.223,0.848,0.404,0.707,0.667,�k�k��,8.6,��
2019/10/23,12:20,0.702,0.988,0.660,1.221,0.848,0.403,0.707,0.668,�k�k��,8.0,��
2019/10/23,12:30,0.704,0.988,0.660,1.221,0.851,0.405,0.707,0.668,�k�k��,7.4,��
2019/10/23,12:40,0.703,0.991,0.660,1.221,0.850,0.405,0.707,0.669,�k�k��,7.4,��
2019/10/23,12:50,0.704,0.989,0.660,1.220,0.850,0.404,0.706,0.668,�k�k��,6.9,��
2019/10/23,13:00,0.704,0.986,0.659,1.222,0.850,0.403,0.706,0.669,�k��,6.3,��
2019/10/23,13:10,0.704,0.986,0.661,1.221,0.851,0.404,0.708,0.667,�k�k��,5.5,��
2019/10/23,13:20,0.703,0.985,0.660,1.221,0.852,0.404,0.706,0.669,�k��,5.5,��
2019/10/23,13:30,0.704,0.986,0.658,1.222,0.849,0.405,0.707,0.670,�k��,4.7,��
2019/10/23,13:40,0.704,0.985,0.658,1.221,0.854,0.404,0.707,0.667,�k��,3.8,��
2019/10/23,13:50,0.705,0.989,0.657,1.223,0.849,0.404,0.705,0.670,�k�k��,3.4,��
2019/10/23,14:00,0.704,0.987,0.660,1.224,0.854,0.406,0.707,0.670,�k�k��,3.5,��
2019/10/23,14:10,0.703,0.986,0.658,1.222,0.852,0.405,0.708,0.669,�k�k��,2.6,��
2019/10/23,14:20,0.704,0.987,0.659,1.223,0.851,0.404,0.707,0.670,�k�k��,3.8,��
2019/10/23,14:30,0.703,0.990,0.657,1.224,0.854,0.405,0.708,0.669,�k�k��,3.5,��
2019/10/23,14:40,0.705,0.990,0.658,1.222,0.852,0.404,0.707,0.668,�k,3.1,��
2019/10/23,14:50,0.702,0.988,0.659,1.224,0.853,0.407,0.707,0.669,�k,3.1,��
2019/10/23,15:00,0.703,0.990,0.659,1.225,0.852,0.405,0.707,0.668,�k�k��,2.4,��
2019/10/23,15:10,0.703,0.990,0.659,1.225,0.853,0.404,0.707,0.668,�k��,3.6,��
2019/10/23,15:20,0.702,0.990,0.660,1.223,0.851,0.405,0.708,0.669,�k��,1.6,��
2019/10/23,15:30,0.704,0.989,0.660,1.224,0.854,0.406,0.706,0.670,�k��,1.2,��
2019/10/23,15:40,0.702,0.993,0.661,1.223,0.854,0.406,0.708,0.667,���k��,2.0,��
2019/10/23,15:50,0.702,0.989,0.659,1.225,0.851,0.404,0.705,0.669,�k��,1.0,��
2019/10/23,16:00,0.703,0.990,0.658,1.225,0.853,0.406,0.707,0.669,�k�k��,2.5,��
2019/10/23,16:10,0.702,0.994,0.657,1.227,0.852,0.407,0.706,0.669,�k�k��,1.7,��
2019/10/23,16:20,0.703,0.993,0.657,1.223,0.855,0.407,0.707,0.671,�k��,2.4,��
2019/10/23,16:30,0.702,0.997,0.658,1.224,0.851,0.406,0.707,0.670,�k�k��,1.7,��
2019/10/23,16:40,0.704,0.995,0.660,1.225,0.854,0.408,0.706,0.670,�k��,1.6,��
2019/10/23,16:50,0.704,0.996,0.662,1.225,0.853,0.407,0.707,0.672,�k,1.3,��
2019/10/23,17:00,0.703,0.998,0.660,1.224,0.855,0.409,0.707,0.671,�k,0.8,��
2019/10/23,17:10,0.705,0.997,0.662,1.226,0.855,0.407,0.707,0.673,�k�k��,1.1,��
2019/10/23,17:20,0.704,0.997,0.661,1.225,0.857,0.407,0.707,0.672,�k��,1.0,��
2019/10/23,17:30,0.705,0.997,0.661,1.224,0.856,0.408,0.706,0.673,-,CALM,��
2019/10/23,17:40,0.707,0.996,0.662,1.226,0.857,0.408,0.707,0.671,���k��,1.4,��
2019/10/23,17:50,0.705,0.999,0.663,1.225,0.857,0.408,0.707,0.672,�k��,0.9,��
2019/10/23,18:00,0.706,0.999,0.663,1.225,0.857,0.408,0.708,0.673,�k��,0.8,��
2019/10/23,18:10,0.706,0.996,0.663,1.224,0.858,0.408,0.708,0.670,���쓌,0.7,��
2019/10/23,18:20,0.705,0.998,0.664,1.223,0.855,0.408,0.708,0.672,���k��,0.9,��
2019/10/23,18:30,0.705,0.998,0.664,1.222,0.857,0.410,0.707,0.672,-,CALM,��
2019/10/23,18:40,0.706,0.996,0.663,1.224,0.856,0.408,0.705,0.671,���쓌,0.5,��
2019/10/23,18:50,0.705,0.999,0.662,1.224,0.857,0.408,0.705,0.671,��,0.6,��
2019/10/23,19:00,0.706,0.997,0.664,1.225,0.857,0.408,0.707,0.671,���쓌,0.5,��
2019/10/23,19:10,0.705,0.999,0.662,1.224,0.859,0.407,0.707,0.671,-,CALM,��
2019/10/23,19:20,0.704,0.996,0.663,1.224,0.857,0.409,0.707,0.672,���쓌,0.8,��
2019/10/23,19:30,0.706,0.996,0.663,1.225,0.856,0.407,0.706,0.672,�쓌,1.6,��
2019/10/23,19:40,0.705,1.000,0.665,1.225,0.856,0.407,0.708,0.671,���쓌,0.7,��
2019/10/23,19:50,0.707,1.000,0.662,1.224,0.856,0.407,0.708,0.672,��쓌,0.9,��
2019/10/23,20:00,0.706,0.998,0.663,1.224,0.859,0.407,0.707,0.672,��,1.3,��
2019/10/23,20:10,0.705,0.996,0.663,1.224,0.856,0.407,0.708,0.672,��쐼,1.3,��
2019/10/23,20:20,0.705,0.999,0.664,1.224,0.857,0.407,0.708,0.673,��,0.9,��
2019/10/23,20:30,0.705,0.995,0.663,1.226,0.858,0.407,0.707,0.673,��쓌,0.8,��
2019/10/23,20:40,0.704,0.999,0.663,1.223,0.859,0.407,0.707,0.671,��,1.1,��
2019/10/23,20:50,0.705,0.998,0.662,1.226,0.857,0.408,0.707,0.672,��쓌,1.5,��
2019/10/23,21:00,0.704,0.999,0.663,1.227,0.858,0.408,0.705,0.671,��쓌,2.3,��
2019/10/23,21:10,0.704,0.997,0.664,1.227,0.858,0.408,0.708,0.671,��,2.5,��
2019/10/23,21:20,0.704,0.998,0.663,1.227,0.858,0.408,0.708,0.672,��,2.6,��
2019/10/23,21:30,0.705,0.996,0.665,1.224,0.859,0.407,0.707,0.673,��쓌,2.6,��
2019/10/23,21:40,0.707,0.999,0.664,1.226,0.859,0.406,0.706,0.673,��쓌,3.1,��
2019/10/23,21:50,0.704,0.998,0.664,1.225,0.858,0.406,0.708,0.672,��,3.5,��
2019/10/23,22:00,0.706,0.999,0.663,1.227,0.858,0.407,0.707,0.672,��,3.1,��
2019/10/23,22:10,0.707,0.998,0.662,1.227,0.858,0.407,0.707,0.671,��,3.0,��
2019/10/23,22:20,0.706,0.998,0.664,1.224,0.858,0.408,0.707,0.672,��,3.0,��
2019/10/23,22:30,0.705,0.997,0.664,1.225,0.859,0.408,0.708,0.670,��,2.3,��
2019/10/23,22:40,0.705,0.996,0.662,1.226,0.859,0.408,0.710,0.672,��,2.4,��
2019/10/23,22:50,0.705,1.000,0.663,1.225,0.859,0.408,0.707,0.672,��,3.1,��
2019/10/23,23:00,0.707,0.998,0.664,1.228,0.859,0.407,0.708,0.672,��,3.5,��
2019/10/23,23:10,0.707,0.999,0.663,1.225,0.859,0.407,0.708,0.672,��,2.9,��
2019/10/23,23:20,0.705,0.999,0.663,1.226,0.859,0.407,0.707,0.671,��,2.5,��
2019/10/23,23:30,0.704,1.000,0.663,1.228,0.857,0.408,0.707,0.671,��,2.3,��
2019/10/23,23:40,0.707,0.998,0.662,1.227,0.860,0.407,0.708,0.673,��,1.9,��
2019/10/23,23:50,0.704,0.998,0.664,1.227,0.858,0.406,0.708,0.671,��쓌,2.0,��
